This demonstration page uses our WeatherBlox Daily Observations layout. Learn more.

Left ArrowRight Arrow

39.51506, -84.39828

Hourly Observations for April 3, 2018

Temp ( °F °C ) Dew Point ( °F °C ) Humidity (%) Winds ( mph kmh ) Pressure ( in mb ) Visibility ( mi km ) Precip ( " mm )
12:15 am 00:15 Cloudy 44 6.6 38 3.4 80 80 ESE 6 9 29.91 1013 10 16 0.00 0.00
12:35 am 00:35 Cloudy with Light Rain 44 6.6 39 3.8 83 83 E 3 6 29.91 1013 10 16 0.00 0.00
12:55 am 00:55 Cloudy with Drizzle 44 6.4 39 4.1 85 85 Calm 29.94 1014 10 16 0.00 0.00
1:15 am 01:15 Cloudy with Nearby Thunderstorms 43 6.1 40 4.7 91 91 ENE 7 11 29.91 1013 4 6 0.05 1.27
1:35 am 01:35 Cloudy 43 5.9 41 4.9 93 93 E 6 9 29.91 1013 7 11 0.08 2.03
1:55 am 01:55 Cloudy with Nearby Thunderstorms 43 5.9 41 5 94 94 E 3 6 29.88 1012 5 8 0.12 3.05
2:15 am 02:15 Cloudy with Light Rain 43 6 41 4.9 93 93 Calm 29.88 1012 7 11 0.01 0.25
2:35 am 02:35 Cloudy with Nearby Thunderstorms 43 6.1 41 5.2 94 94 Calm 29.88 1012 7 11 0.01 0.25
2:55 am 02:55 Cloudy with Nearby Thunderstorms 43 6 42 5.3 95 95 Calm 29.88 1012 5 8 0.04 1.02
3:15 am 03:15 Cloudy with Rain 43 6.2 42 5.7 97 97 SE 5 7 29.85 1011 3 5 0.05 1.27
3:35 am 03:35 Cloudy with Rain 44 6.5 43 6 97 97 S 7 11 29.85 1011 4 6 0.12 3.05
3:55 am 03:55 Cloudy with Nearby Thunderstorms 44 6.8 43 6.3 97 97 S 5 7 29.85 1011 3 5 0.18 4.57
4:15 am 04:15 Cloudy with Strong Thunderstorms 45 7.1 44 6.7 97 97 SSW 5 7 29.83 1010 3 4 0.08 2.03
4:35 am 04:35 Cloudy with Thunderstorms 45 7.4 45 7.1 98 98 SSE 3 6 29.80 1009 4 6 0.17 4.32
4:55 am 04:55 Cloudy with Mist and Fog 47 8.2 46 7.8 97 97 S 6 9 29.80 1009 5 8 0.17 4.32
5:15 am 05:15 Cloudy with Nearby Thunderstorms 46 7.6 45 7 96 96 WNW 16 26 29.85 1011 7 11 0.00 0.00
5:35 am 05:35 Cloudy 47 8.3 46 7.5 95 95 SW 5 7 29.85 1011 10 16 0.00 0.00
5:55 am 05:55 Cloudy with Strong Thunderstorms 48 8.7 47 8.1 96 96 SSE 8 13 29.83 1010 3 5 0.19 4.83
6:15 am 06:15 Cloudy with Thunderstorms 49 9.3 48 8.8 97 97 SSW 8 13 29.85 1011 5 8 0.06 1.52
6:35 am 06:35 Cloudy with Nearby Thunderstorms 49 9.3 48 8.8 97 97 Calm 29.83 1010 4 6 0.20 5.08
6:55 am 06:55 Cloudy with Strong Thunderstorms 48 8.9 47 8.6 98 98 SW 3 6 29.85 1011 3 4 0.36 9.14
7:15 am 07:15 Cloudy with Thunderstorms 48 9.1 48 8.9 99 99 S 5 7 29.83 1010 2 2 0.05 1.27
7:35 am 07:35 Cloudy with Thunderstorms 49 9.4 49 9.2 99 99 S 6 9 29.83 1010 2 3 0.10 2.54
7:55 am 07:55 Cloudy with Rain 49 9.6 49 9.3 98 98 S 5 7 29.83 1010 4 6 0.14 3.56
8:15 am 08:15 Cloudy with Thunderstorms 50 9.8 49 9.4 97 97 SSW 7 11 29.85 1011 4 6 0.03 0.76
8:35 am 08:35 Cloudy with Thunderstorms 50 9.9 49 9.5 97 97 WSW 3 6 29.83 1010 5 8 0.11 2.79
8:55 am 08:55 Cloudy with Thunderstorms 51 10.4 50 10 97 97 SSW 6 9 29.83 1010 5 8 0.17 4.32
9:15 am 09:15 Cloudy with Strong Thunderstorms 51 10.3 50 10 98 98 SSW 6 9 29.83 1010 3 5 0.05 1.27
9:35 am 09:35 Cloudy with Thunderstorms 52 11.3 52 10.9 97 97 W 6 9 29.80 1009 7 11 0.08 2.03
9:55 am 09:55 Cloudy with Mist and Fog 51 10.6 51 10.3 98 98 Calm 29.80 1009 7 11 0.09 2.29
10:15 am 10:15 Cloudy with Thunderstorms 51 10.8 51 10.6 99 99 NW 3 6 29.80 1009 3 5 0.04 1.02
10:35 am 10:35 Cloudy with Thunderstorms 52 11.1 52 10.9 99 99 E 6 9 29.80 1009 4 6 0.16 4.06
10:55 am 10:55 Cloudy with Nearby Thunderstorms 52 11.3 52 11.1 99 99 WNW 5 7 29.80 1009 4 6 0.16 4.06
11:15 am 11:15 Cloudy with Nearby Thunderstorms 55 12.5 53 11.8 96 96 Calm 29.80 1009 10 16 0.00 0.00
11:35 am 11:35 Cloudy with Thunderstorms 57 13.8 54 12.2 90 90 SE 8 13 29.74 1007 10 16 0.00 0.00
11:55 am 11:55 Cloudy with Thunderstorms 58 14.4 55 12.5 88 88 SSE 3 6 29.77 1008 10 16 0.00 0.00
12:15 pm 12:15 Cloudy with Nearby Thunderstorms 59 15.2 54 12.4 84 84 ENE 5 7 29.77 1008 10 16 0.00 0.00
12:35 pm 12:35 Cloudy 56 13.5 54 12.1 91 91 ENE 8 13 29.74 1007 10 16 0.00 0.00
12:55 pm 12:55 Cloudy 57 13.9 55 12.5 91 91 ENE 8 13 29.71 1006 10 16 0.00 0.00
1:10 pm 13:10 Cloudy with Nearby Thunderstorms 60 15.3 56 13.5 89 89 ENE 6 9 29.68 1005 10 16 0.00 0.00
1:35 pm 13:35 Mostly Cloudy 64 18 58 14.6 81 81 E 7 11 29.68 1005 10 16 0.00 0.00
1:55 pm 13:55 Cloudy 66 19 59 15.1 78 78 E 7 11 29.68 1005 10 16 0.00 0.00
2:15 pm 14:15 Partly Cloudy with Nearby Thunderstorms 68 19.9 60 15.3 75 75 E 8 13 29.68 1005 10 16 0.00 0.00
2:35 pm 14:35 Cloudy with Nearby Thunderstorms 67 19.5 60 15.6 78 78 NNE 8 13 29.65 1004 10 16 0.00 0.00
2:55 pm 14:55 Cloudy with Nearby Thunderstorms 68 20 60 15.7 76 76 ENE 9 15 29.62 1003 10 16 0.00 0.00
3:15 pm 15:15 Mostly Cloudy with Nearby Thunderstorms 70 21.2 61 16.3 74 74 N 8 13 29.59 1002 10 16 0.00 0.00
3:35 pm 15:35 Mostly Cloudy with Thunderstorms 70 20.9 61 15.9 73 73 S 3 6 29.59 1002 10 16 0.00 0.00
3:55 pm 15:55 Mostly Cloudy with Nearby Thunderstorms 73 22.6 58 14.5 60 60 SSW 14 22 29.56 1001 10 16 0.00 0.00
4:15 pm 16:15 Cloudy with Thunderstorms 74 23.1 57 13.8 56 56 SW 20 31 29.59 1002 10 16 0.00 0.00
4:35 pm 16:35 Cloudy with Strong Thunderstorms 62 16.7 58 14.4 86 86 W 28 44 29.65 1004 4 6 0.09 2.29
4:55 pm 16:55 Cloudy with Strong Thunderstorms 62 16.5 57 13.9 85 85 W 24 39 29.62 1003 4 6 0.30 7.62
5:15 pm 17:15 Cloudy 62 16.4 58 14.2 87 87 SW 8 13 29.59 1002 10 16 0.01 0.25
5:35 pm 17:35 Mostly Cloudy 62 16.8 57 14.1 84 84 WSW 12 19 29.59 1002 10 16 0.01 0.25
5:55 pm 17:55 Mostly Cloudy with Nearby Thunderstorms 63 17.1 58 14.5 85 85 SW 14 22 29.59 1002 10 16 0.01 0.25
6:15 pm 18:15 Cloudy with Light Rain 62 16.4 58 14.6 89 89 SSW 13 20 29.59 1002 10 16 0.00 0.00
6:35 pm 18:35 Cloudy with Light Rain 63 17.3 60 15.4 89 89 SSW 13 20 29.56 1001 10 16 0.03 0.76
6:55 pm 18:55 Cloudy with Nearby Thunderstorms 64 17.6 60 15.6 88 88 SSW 10 17 29.56 1001 10 16 0.03 0.76
7:15 pm 19:15 Cloudy with Thunderstorms 64 17.8 60 15.3 85 85 S 14 22 29.56 1001 10 16 0.01 0.25
7:35 pm 19:35 Cloudy with Thunderstorms 63 17.4 60 15.6 89 89 SSW 12 19 29.56 1001 10 16 0.05 1.27
7:55 pm 19:55 Cloudy with Thunderstorms 63 17.2 60 15.4 89 89 SSW 13 20 29.56 1001 10 16 0.06 1.52
8:15 pm 20:15 Cloudy with Thunderstorms 63 17.1 60 15.3 89 89 SSW 12 19 29.56 1001 10 16 0.01 0.25
8:35 pm 20:35 Cloudy 62 16.9 59 15.1 89 89 SSW 12 19 29.56 1001 10 16 0.01 0.25
8:55 pm 20:55 Partly Cloudy 62 16.7 59 15.1 90 90 S 9 15 29.53 1000 10 16 0.01 0.25
9:15 pm 21:15 Mostly Cloudy 62 16.8 59 15.2 90 90 S 12 19 29.53 1000 10 16 0.00 0.00
9:35 pm 21:35 Cloudy 62 16.9 59 15.2 90 90 SSW 12 19 29.53 1000 10 16 0.00 0.00
9:55 pm 21:55 Mostly Cloudy 62 16.9 59 15.2 90 90 SSW 13 20 29.53 1000 10 16 0.00 0.00
10:15 pm 22:15 Partly Cloudy with Nearby Thunderstorms 63 17.3 59 15.2 88 88 SSW 14 22 29.53 1000 10 16 0.00 0.00
10:35 pm 22:35 Cloudy 64 17.7 59 15.2 85 85 SSW 17 28 29.53 1000 10 16 0.00 0.00
10:55 pm 22:55 Mostly Cloudy 64 18 60 15.4 85 85 SW 20 31 29.53 1000 10 16 0.00 0.00
11:15 pm 23:15 Mostly Cloudy 64 17.6 60 15.3 86 86 SSW 16 26 29.53 1000 10 16 0.00 0.00
11:35 pm 23:35 Cloudy with Rain 62 16.9 60 15.7 93 93 WSW 13 20 29.50 999 5 8 0.06 1.52
11:55 pm 23:55 Cloudy 60 15.3 55 12.7 85 85 W 23 37 29.56 1001 10 16 0.06 1.52

Powered by AerisWeather